Regional Weather Roundup
Issued by NWS

Home | Current Version | Previous Version | Graphics & Text | Print | Product List | Glossary On
Versions: 1 2 3 4 5 6 7 8 9 10 11 12 13 14 15 16 17 18 19 20 21 22 23 24 25 26 27 28 29 30 31 32 33 34 35 36 37 38 39 40 41 42 43 44 45 46 47 48 49 50
000
ASUS43 KLSX 290010
RWRMO

WEATHER SUMMARY FOR MISSOURI
NATIONAL WEATHER SERVICE SPRINGFIELD MO
700 PM CDT WED SEP 28 2016

NOTE: "FAIR" INDICATES FEW OR NO CLOUDS BELOW 12,000 FEET WITH NO
       SIGNIFICANT WEATHER AND/OR OBSTRUCTIONS TO VISIBILITY.
       CURRENT SKY AND/OR WEATHER CONDITIONS ARE NOT AVAILABLE FOR
       CHILLICOTHE AND FARMINGTON.

MOZ001>031-035>038-043-044-053-054-290100-
...NORTHERN AND WESTERN MISSOURI...

CITY           SKY/WX    TMP DP  RH WIND       PRES   REMARKS
KANSAS CTY INT PTCLDY    60  47  61 N9        30.20R
6HR MIN TEMP:  60; 6HR MAX TEMP:  67;

KANSAS C DTWN  MOCLDY    64  47  53 N9        30.19R
6HR MIN TEMP:  64; 6HR MAX TEMP:  70;

LEE`S SUMMIT   PTCLDY    62  48  60 N12       30.19R
6HR MIN TEMP:  62; 6HR MAX TEMP:  68;

ST JOSEPH      MOCLDY    63  48  58 N9        30.21R
6HR MIN TEMP:  63; 6HR MAX TEMP:  69;

CHILLICOTHE      N/A     61  48  62 VRB5      30.21R
6HR MIN TEMP:  61; 6HR MAX TEMP:  68;

KIRKSVILLE     CLOUDY    59  49  69 NW10      30.18R
6HR MIN TEMP:  59; 6HR MAX TEMP:  62;


$$
MOZ066>068-077>081-088>096-101>105-290100-
...SOUTHWEST MISSOURI...

CITY           SKY/WX    TMP DP  RH WIND       PRES   REMARKS
SPRINGFIELD    CLEAR     64  46  52 N10       30.11R
6HR MIN TEMP:  64; 6HR MAX TEMP:  75;

JOPLIN         CLEAR     65  49  56 N8        30.13R
6HR MIN TEMP:  65; 6HR MAX TEMP:  74; 6HR PCP:  0.02;

BRANSON        CLEAR     66  46  48 N12       30.10R

$$
MOZ032>034-039>042-045>050-055>058-069>072-290100-
...CENTRAL MISSOURI...

CITY           SKY/WX    TMP DP  RH WIND       PRES   REMARKS
COLUMBIA       CLOUDY    61  47  59 N15       30.15R
6HR MIN TEMP:  61; 6HR MAX TEMP:  70;

JEFFERSON CITY CLOUDY    62  47  57 N7        30.14R
6HR MIN TEMP:  62; 6HR MAX TEMP:  70;

ROLLA          MOCLDY    60  47  61 N13       30.12R
6HR MIN TEMP:  60; 6HR MAX TEMP:  68; 6HR PCP: TRACE;

SEDALIA        PTCLDY    60  46  59 N9        30.17R
6HR MIN TEMP:  60; 6HR MAX TEMP:  71;

WHITEMAN AFB   MOCLDY    62  48  61 N13       30.16R
OSAGE BEACH    CLEAR     60  49  66 N5        30.14R

$$
MOZ051-052-059>065-290100-
...EAST CENTRAL MISSOURI...

CITY           SKY/WX    TMP DP  RH WIND       PRES   REMARKS
ST LOUIS INTL  MOCLDY    62  45  53 NW7       30.11R
6HR MIN TEMP:  62; 6HR MAX TEMP:  70;

SPIRIT OF STL  PTCLDY    61  46  57 N12G17    30.11R
6HR MIN TEMP:  61; 6HR MAX TEMP:  69;

ST CHARLES     CLOUDY    60  48  64 NW12      30.10R
6HR MIN TEMP:  60; 6HR MAX TEMP:  69; 6HR PCP: TRACE;


$$
MOZ072>076-082>087-097>100-106>115-290100-
...SOUTH CENTRAL AND SOUTHEAST MISSOURI...

CITY           SKY/WX    TMP DP  RH WIND       PRES   REMARKS
CAPE GIRARDEAU CLEAR     62  46  55 N8        30.04R
6HR MIN TEMP:  62; 6HR MAX TEMP:  74;

FARMINGTON     CLEAR     61  46  57 N9        30.09R
6HR MIN TEMP:  61; 6HR MAX TEMP:  69;

POPLAR BLUFF   CLEAR     62  50  64 N6        30.04R
6HR MIN TEMP:  62; 6HR MAX TEMP:  81;

WEST PLAINS    CLEAR     63  44  50 N8        30.10R
6HR MIN TEMP:  63; 6HR MAX TEMP:  77;


$$




USA.gov is the U.S. government's official web portal to all federal, state and local government web resources and services.